Home > Weather > Sandnes > Past weeks

Flag for Norway Weather for the Past 2 Weeks in Sandnes, Norway

Now
48 °F

Clear.


Feels Like: 43 °F
Forecast: 46 / 56 °F
Wind: 13 mph from Southeast

Location: Stavanger / Sola

Current Time: May 5, 2016 at 1:23:14 AM

Latest Report: May 5, 2016 at 12:50 AM


Visibility: 10 mi

Pressure: 30.27 "Hg

Humidity: 71%

Dew Point: 39 °F

Location of SandnesLocation

Historic Weather in Sandnes — Graph

°F

Sandnes Temperature Yesterday

Maximum temperature yesterday: 55 °F (at 11:50 AM)
Minimum temperature yesterday: 41 °F (at 3:50 AM)
Average temperature yesterday: 50 °F

High & Low Weather Summary for the Past Weeks

 TemperatureHumidityPressure
High55 °F (May 4, 11:50 AM)100% (Apr 29, 3:50 AM)30.39 "Hg (Apr 29, 3:50 AM)
Low30 °F (Apr 25, 5:50 AM)29% (Apr 26, 12:20 PM)29.50 "Hg (Apr 25, 12:50 PM)
Average44 °F70%29.96 "Hg
* Reported Apr 19 11:20 PM — May 4 11:20 PM, Sandnes, Weather by CustomWeather, © 2016

Note: Actual official high and low records may vary slightly from our data, if they occured in-between our weather recording intervals... More about our weather records

Advertising

Sandnes Weather History for the Previous 24 Hours

Scroll right to see more
 ConditionsComfort  
Time TempWeatherWind HumidityBarometerVisibility
11:20 PM
Wed, May 4
48 °FClear.10 mph71%30.27 "Hg10 mi
10:50 PM48 °FClear.12 mph71%30.27 "Hg10 mi
10:20 PM48 °FSunny.10 mph71%30.27 "Hg10 mi
9:50 PM50 °FSunny.10 mph67%30.27 "Hg10 mi
9:20 PM50 °FSunny.13 mph67%30.27 "Hg10 mi
8:50 PM50 °FSunny.13 mph67%30.27 "Hg10 mi
8:20 PM52 °FSunny.9 mph58%30.27 "Hg10 mi
7:50 PM52 °FSunny.12 mph58%30.27 "Hg10 mi
7:20 PM52 °FPartly sunny.14 mph58%30.27 "HgN/A
6:50 PM52 °FPartly sunny.15 mph58%30.27 "HgN/A
6:20 PM54 °FPartly sunny.14 mph58%30.27 "HgN/A
5:50 PM54 °FPartly sunny.13 mph58%30.30 "HgN/A
5:20 PM54 °FPartly sunny.16 mph58%30.30 "HgN/A
4:50 PM54 °FPartly sunny.16 mph58%30.30 "HgN/A
4:20 PM55 °FScattered clouds.15 mph55%30.30 "HgN/A
3:50 PM55 °FScattered clouds.16 mph59%30.30 "HgN/A
3:20 PM54 °FPartly sunny.16 mph63%30.30 "HgN/A
2:50 PM54 °FPartly sunny.16 mph63%30.30 "HgN/A
2:20 PM55 °FScattered clouds.16 mph55%30.30 "HgN/A
1:50 PM55 °FPassing clouds.15 mph59%30.30 "HgN/A
1:20 PM55 °FScattered clouds.15 mph55%30.30 "HgN/A
12:50 PM55 °FScattered clouds.15 mph55%30.30 "HgN/A
12:20 PM55 °FPassing clouds.15 mph51%30.30 "HgN/A
11:50 AM55 °FPassing clouds.14 mph55%30.30 "HgN/A
11:20 AM54 °FPassing clouds.14 mph63%30.27 "HgN/A
10:50 AM54 °FPassing clouds.12 mph63%30.27 "HgN/A
10:20 AM52 °FSunny.12 mph67%30.27 "Hg10 mi
9:50 AM52 °FSunny.10 mph67%30.27 "Hg10 mi
9:20 AM50 °FSunny.8 mph71%30.27 "Hg10 mi
8:50 AM48 °FSunny.8 mph76%30.27 "Hg10 mi
8:20 AM46 °FSunny.8 mph82%30.27 "Hg10 mi
7:50 AM45 °FSunny.7 mph81%30.27 "Hg10 mi
7:20 AM43 °FClear.7 mph87%30.27 "HgN/A
6:50 AM41 °FSunny.7 mph93%30.27 "Hg10 mi
6:20 AM41 °FClear.8 mph93%30.24 "Hg10 mi
5:50 AM43 °FPassing clouds.8 mph87%30.24 "HgN/A
4:50 AM43 °FPassing clouds.7 mph93%30.24 "HgN/A
3:50 AM41 °FPassing clouds.6 mph93%30.21 "HgN/A
2:50 AM43 °FPassing clouds.6 mph93%30.21 "HgN/A
1:50 AM43 °FPassing clouds.7 mph93%30.21 "HgN/A
Weather by CustomWeather, © 2016

See weather overviewHow to use our weather pages